Regional Weather Roundup
Issued by NWS Goodland, KS

Home | Current Version | Previous Version | Text Only | Print | Product List | Glossary Off
Versions: 1 2 3 4 5 6 7 8 9 10 11 12 13 14 15 16 17 18 19 20 21 22 23 24 25 26 27 28 29 30 31 32 33 34 35 36 37 38 39 40 41 42 43 44 45 46 47 48 49 50

000
ASUS43 KGLD 301108
RWRGLD

GOODLAND FORECAST AREA HOURLY WEATHER ROUNDUP
NATIONAL WEATHER SERVICE GOODLAND KS
500 AM MDT TUE SEP 30 2014

...OFFICIAL OBSERVATIONS...

CITY           SKY/WX    TMP DP  RH WIND       PRES   REMARKS
GOODLAND KS    MOCLDY    48  45  89 SW7       29.86F
HILL CITY KS   PTCLDY    64  59  83 SW8       29.83R
IMPERIAL NEB   PTCLDY    51  46  83 SW8       29.81R
MCCOOK NEB     CLEAR     54  49  83 W13       29.81S
AKRON CO       MOCLDY    48  45  89 SW10      29.83S
BURLINGTON CO  PTCLDY    46  42  86 SW8       29.87R
LIMON CO       CLEAR     39  38  96 NE5       29.89S
$$

...UNOFFICIAL OBSERVATIONS...

CITY           SKY/WX    TMP DP  RH WIND       PRES   REMARKS
COLBY KS       CLEAR     48  48 100 S3        29.86R
GOVE KS          N/A     59  32  36 MISG        N/A
NORTON KS      CLEAR     57  48  72 SW8       29.82R
SHARON SPRINGS   N/A     48  46  93 CALM        N/A
TRIBUNE KS     CLEAR     50  50 100 CALM      29.89F
WAKEENEY KS      N/A     63  57  81 MISG        N/A
KIT CARSON CO    N/A     46  43  90 MISG        N/A
YUMA CO          N/A     49  47  92 S7          N/A
$$



USA.gov is the U.S. government's official web portal to all federal, state and local government web resources and services.